| time (UTC) | temp F | wind direction | speed MPH | gust MPH | rain 1hr in | rain 24hr in | rain mn in | humidity % | barometer mb |
| 20260831194005 | 69 | 157 | 3.0 | 14.0 | 0.00 | 0.00 | 0.00 | 56 | 1017.9 |
| 20260831193504 | 69 | 151 | 3.0 | 14.0 | 0.00 | 0.00 | 0.00 | 57 | 1017.8 |
| 20260831193009 | 70 | 184 | 4.0 | 12.0 | 0.00 | 0.00 | 0.00 | 55 | 1017.9 |
| 20260831192503 | 70 | 185 | 4.0 | 10.0 | 0.00 | 0.00 | 0.00 | 53 | 1017.8 |
| 20260831192003 | 70 | 267 | 2.0 | 13.0 | 0.00 | 0.00 | 0.00 | 54 | 1018.0 |
| 20260831191503 | 70 | 260 | 4.0 | 13.0 | 0.00 | 0.00 | 0.00 | 52 | 1017.9 |
| 20260831191003 | 70 | 177 | 4.0 | 10.0 | 0.00 | 0.00 | 0.00 | 50 | 1017.8 |
| 20260831190504 | 70 | 243 | 4.0 | 11.0 | 0.00 | 0.00 | 0.00 | 50 | 1017.7 |
| 20260831190003 | 70 | 165 | 5.0 | 11.0 | 0.00 | 0.00 | 0.00 | 48 | 1017.9 |
| 20260831185503 | 70 | 171 | 5.0 | 11.0 | 0.00 | 0.00 | 0.00 | 48 | 1018.0 |
| 20260831185003 | 71 | 249 | 5.0 | 11.0 | 0.00 | 0.00 | 0.00 | 47 | 1018.0 |
| 20260831184503 | 71 | 207 | 5.0 | 11.0 | 0.00 | 0.00 | 0.00 | 47 | 1018.0 |
| 20260831184003 | 72 | 234 | 4.0 | 11.0 | 0.00 | 0.00 | 0.00 | 49 | 1018.1 |
| 20260831183502 | 73 | 162 | 5.0 | 11.0 | 0.00 | 0.00 | 0.00 | 48 | 1018.1 |
| 20260831183002 | 73 | 142 | 3.0 | 11.0 | 0.00 | 0.00 | 0.00 | 49 | 1018.2 |
| 20260831182502 | 74 | 123 | 1.0 | 7.0 | 0.00 | 0.00 | 0.00 | 49 | 1018.2 |
| 20260831182002 | 74 | 34 | 3.0 | 8.0 | 0.00 | 0.00 | 0.00 | 47 | 1018.3 |
| 20260831181502 | 74 | 181 | 3.0 | 8.0 | 0.00 | 0.00 | 0.00 | 46 | 1018.2 |
| 20260831181001 | 75 | 142 | 4.0 | 9.0 | 0.00 | 0.00 | 0.00 | 46 | 1018.2 |
| 20260831180501 | 75 | 54 | 3.0 | 9.0 | 0.00 | 0.00 | 0.00 | 44 | 1018.2 |
| 20260831180002 | 75 | 188 | 3.0 | 7.0 | 0.00 | 0.00 | 0.00 | 45 | 1018.1 |
| 20260831175501 | 75 | 42 | 1.0 | 5.0 | 0.00 | 0.00 | 0.00 | 44 | 1018.3 |
| 20260831175001 | 76 | 360 | 2.0 | 5.0 | 0.00 | 0.00 | 0.00 | 44 | 1018.4 |
| 20260831174501 | 76 | 140 | 3.0 | 5.0 | 0.00 | 0.00 | 0.00 | 45 | 1018.4 |
| 20260831174102 | 76 | 155 | 1.0 | 6.0 | 0.00 | 0.00 | 0.00 | 44 | 1018.5 |
| 20260831173603 | 76 | 155 | 4.0 | 7.0 | 0.00 | 0.00 | 0.00 | 44 | 1018.5 |
| 20260831173100 | 77 | 140 | 3.0 | 7.0 | 0.00 | 0.00 | 0.00 | 43 | 1018.5 |
| 20260831172559 | 77 | 209 | 4.0 | 8.0 | 0.00 | 0.00 | 0.00 | 42 | 1018.6 |
| 20260831172059 | 77 | 104 | 3.0 | 8.0 | 0.00 | 0.00 | 0.00 | 43 | 1018.5 |
| 20260831171601 | 77 | 98 | 0.0 | 8.0 | 0.00 | 0.00 | 0.00 | 42 | 1018.5 |
| 20260831171059 | 77 | 88 | 2.0 | 8.0 | 0.00 | 0.00 | 0.00 | 42 | 1018.6 |
| 20260831170557 | 77 | 34 | 2.0 | 4.0 | 0.00 | 0.00 | 0.00 | 43 | 1018.7 |
| 20260831170055 | 76 | 31 | 2.0 | 4.0 | 0.00 | 0.00 | 0.00 | 43 | 1018.8 |
| 20260831165554 | 75 | 58 | 1.0 | 4.0 | 0.00 | 0.00 | 0.00 | 42 | 1018.8 |
| 20260831165053 | 75 | 319 | 1.0 | 6.0 | 0.00 | 0.00 | 0.00 | 43 | 1018.8 |
| 20260831164553 | 75 | 30 | 3.0 | 6.0 | 0.00 | 0.00 | 0.00 | 44 | 1018.9 |
| 20260831164053 | 75 | 355 | 2.0 | 6.0 | 0.00 | 0.00 | 0.00 | 43 | 1019.0 |
| 20260831163551 | 74 | 38 | 2.0 | 6.0 | 0.00 | 0.00 | 0.00 | 48 | 1019.1 |
| 20260831163050 | 74 | 30 | 3.0 | 6.0 | 0.00 | 0.00 | 0.00 | 44 | 1019.0 |
| 20260831162550 | 74 | 5 | 3.0 | 5.0 | 0.00 | 0.00 | 0.00 | 45 | 1019.1 |
| 20260831162050 | 73 | 49 | 3.0 | 6.0 | 0.00 | 0.00 | 0.00 | 46 | 1019.1 |
| 20260831161550 | 72 | 32 | 2.0 | 6.0 | 0.00 | 0.00 | 0.00 | 49 | 1019.1 |
| 20260831161046 | 72 | 338 | 3.0 | 9.0 | 0.00 | 0.00 | 0.00 | 48 | 1019.1 |
| 20260831160545 | 72 | 32 | 2.0 | 9.0 | 0.00 | 0.00 | 0.00 | 49 | 1019.1 |
| 20260831160045 | 72 | 10 | 3.0 | 9.0 | 0.00 | 0.00 | 0.00 | 48 | 1019.0 |
| 20260831155544 | 72 | 355 | 4.0 | 8.0 | 0.00 | 0.00 | 0.00 | 47 | 1019.2 |
| 20260831155043 | 72 | 33 | 2.0 | 6.0 | 0.00 | 0.00 | 0.00 | 49 | 1019.2 |
| 20260831154547 | 72 | 333 | 3.0 | 9.0 | 0.00 | 0.00 | 0.00 | 48 | 1019.3 |
| 20260831154042 | 72 | 22 | 5.0 | 9.0 | 0.00 | 0.00 | 0.00 | 49 | 1019.5 |
| 20260831153640 | 72 | 338 | 4.0 | 8.0 | 0.00 | 0.00 | 0.00 | 52 | 1019.3 |
| 20260831153043 | 71 | 338 | 3.0 | 7.0 | 0.00 | 0.00 | 0.00 | 50 | 1019.5 |
| 20260831152539 | 71 | 22 | 4.0 | 8.0 | 0.00 | 0.00 | 0.00 | 50 | 1019.5 |
| 20260831152038 | 71 | 321 | 3.0 | 8.0 | 0.00 | 0.00 | 0.00 | 49 | 1019.5 |
| 20260831151537 | 71 | 37 | 4.0 | 9.0 | 0.00 | 0.00 | 0.00 | 50 | 1019.5 |
| 20260831151036 | 71 | 342 | 4.0 | 8.0 | 0.00 | 0.00 | 0.00 | 50 | 1019.6 |
| 20260831150535 | 71 | 19 | 3.0 | 8.0 | 0.00 | 0.00 | 0.00 | 50 | 1019.5 |
| 20260831150034 | 71 | 302 | 2.0 | 10.0 | 0.00 | 0.00 | 0.00 | 50 | 1019.6 |
| 20260831145534 | 70 | 346 | 4.0 | 10.0 | 0.00 | 0.00 | 0.00 | 51 | 1019.6 |
| 20260831145031 | 70 | 31 | 4.0 | 9.0 | 0.00 | 0.00 | 0.00 | 52 | 1019.7 |
| 20260831144529 | 69 | 17 | 4.0 | 9.0 | 0.00 | 0.00 | 0.00 | 55 | 1019.7 |
| 20260831144029 | 69 | 15 | 4.0 | 9.0 | 0.00 | 0.00 | 0.00 | 55 | 1019.8 |
| 20260831143531 | 69 | 5 | 5.0 | 9.0 | 0.00 | 0.00 | 0.00 | 55 | 1019.7 |
| 20260831143025 | 69 | 338 | 4.0 | 8.0 | 0.00 | 0.00 | 0.00 | 56 | 1019.7 |
| 20260831142527 | 69 | 5 | 2.0 | 8.0 | 0.00 | 0.00 | 0.00 | 56 | 1019.7 |
| 20260831142023 | 69 | 5 | 5.0 | 8.0 | 0.00 | 0.00 | 0.00 | 56 | 1019.7 |
| 20260831141522 | 69 | 333 | 4.0 | 8.0 | 0.00 | 0.00 | 0.00 | 57 | 1019.9 |
| 20260831141020 | 69 | 340 | 3.0 | 8.0 | 0.00 | 0.00 | 0.00 | 57 | 1019.9 |
| 20260831140519 | 69 | 337 | 4.0 | 10.0 | 0.00 | 0.00 | 0.00 | 58 | 1019.9 |
| 20260831140017 | 69 | 14 | 4.0 | 10.0 | 0.00 | 0.00 | 0.00 | 58 | 1019.9 |
| 20260831135516 | 69 | 336 | 4.0 | 8.0 | 0.00 | 0.00 | 0.00 | 61 | 1019.9 |
| 20260831135015 | 68 | 32 | 2.0 | 6.0 | 0.00 | 0.00 | 0.00 | 63 | 1019.9 |
| 20260831134513 | 68 | 30 | 3.0 | 9.0 | 0.00 | 0.00 | 0.00 | 63 | 1019.9 |
| 20260831134012 | 67 | 319 | 4.0 | 9.0 | 0.00 | 0.00 | 0.00 | 61 | 1019.8 |
| 20260831133510 | 67 | 330 | 2.0 | 8.0 | 0.00 | 0.00 | 0.00 | 65 | 1019.7 |
| 20260831133009 | 67 | 331 | 3.0 | 8.0 | 0.00 | 0.00 | 0.00 | 65 | 1019.6 |
| 20260831132507 | 67 | 335 | 3.0 | 8.0 | 0.00 | 0.00 | 0.00 | 66 | 1019.6 |
| 20260831132006 | 67 | 341 | 4.0 | 8.0 | 0.00 | 0.00 | 0.00 | 68 | 1019.4 |
| 20260831131510 | 66 | 304 | 4.0 | 8.0 | 0.00 | 0.00 | 0.00 | 68 | 1019.4 |
| 20260831131007 | 66 | 335 | 3.0 | 8.0 | 0.00 | 0.00 | 0.00 | 69 | 1019.3 |
| 20260831130501 | 66 | 17 | 3.0 | 9.0 | 0.00 | 0.00 | 0.00 | 71 | 1019.4 |
| 20260831130109 | 65 | 38 | 3.0 | 9.0 | 0.00 | 0.00 | 0.00 | 69 | 1019.5 |
| 20260831125559 | 65 | 5 | 2.0 | 6.0 | 0.00 | 0.00 | 0.00 | 71 | 1019.5 |
| 20260831125058 | 64 | 46 | 3.0 | 8.0 | 0.00 | 0.00 | 0.00 | 72 | 1019.5 |
| 20260831124603 | 64 | 31 | 3.0 | 8.0 | 0.00 | 0.00 | 0.00 | 74 | 1019.4 |
| 20260831124056 | 63 | 27 | 3.0 | 8.0 | 0.00 | 0.00 | 0.00 | 74 | 1019.4 |
| 20260831123552 | 63 | 21 | 3.0 | 8.0 | 0.00 | 0.00 | 0.00 | 75 | 1019.4 |
| 20260831123055 | 63 | 355 | 1.0 | 8.0 | 0.00 | 0.00 | 0.00 | 75 | 1019.3 |
| 20260831122550 | 62 | 342 | 2.0 | 8.0 | 0.00 | 0.00 | 0.00 | 76 | 1019.4 |
| 20260831122049 | 62 | 306 | 3.0 | 7.0 | 0.00 | 0.00 | 0.00 | 77 | 1019.3 |
| 20260831121549 | 61 | 29 | 3.0 | 6.0 | 0.00 | 0.00 | 0.00 | 78 | 1019.2 |
| 20260831121046 | 61 | 360 | 3.0 | 6.0 | 0.00 | 0.00 | 0.00 | 80 | 1019.1 |
| 20260831120545 | 60 | 26 | 3.0 | 8.0 | 0.00 | 0.00 | 0.00 | 81 | 1019.2 |
| 20260831120044 | 60 | 355 | 2.0 | 5.0 | 0.00 | 0.00 | 0.00 | 83 | 1019.2 |
| 20260831115540 | 59 | 303 | 2.0 | 5.0 | 0.00 | 0.00 | 0.00 | 84 | 1019.4 |
| 20260831115039 | 59 | 5 | 2.0 | 7.0 | 0.00 | 0.00 | 0.00 | 84 | 1019.5 |
| 20260831114638 | 58 | 270 | 3.0 | 7.0 | 0.00 | 0.00 | 0.00 | 85 | 1019.3 |
| 20260831114037 | 58 | 296 | 2.0 | 5.0 | 0.00 | 0.00 | 0.00 | 86 | 1019.3 |
| 20260831113536 | 58 | 355 | 1.0 | 5.0 | 0.00 | 0.00 | 0.00 | 86 | 1019.2 |
| 20260831113037 | 57 | 313 | 2.0 | 9.0 | 0.00 | 0.00 | 0.00 | 86 | 1019.3 |
| 20260831112534 | 57 | 298 | 3.0 | 9.0 | 0.00 | 0.00 | 0.00 | 86 | 1019.2 |
| 20260831112032 | 57 | 301 | 2.0 | 4.0 | 0.00 | 0.00 | 0.00 | 86 | 1019.2 |
| 20260831111533 | 57 | 345 | 2.0 | 5.0 | 0.00 | 0.00 | 0.00 | 86 | 1019.0 |
| 20260831111031 | 57 | 312 | 1.0 | 5.0 | 0.00 | 0.00 | 0.00 | 86 | 1019.0 |
| 20260831110532 | 57 | 308 | 2.0 | 8.0 | 0.00 | 0.00 | 0.00 | 86 | 1019.1 |
| 20260831110029 | 57 | 310 | 1.0 | 9.0 | 0.00 | 0.00 | 0.00 | 86 | 1019.0 |
| 20260831105528 | 57 | 290 | 1.0 | 9.0 | 0.00 | 0.00 | 0.00 | 86 | 1018.9 |
| 20260831105028 | 57 | 344 | 3.0 | 7.0 | 0.00 | 0.00 | 0.00 | 86 | 1018.8 |
| 20260831104534 | 57 | 360 | 1.0 | 7.0 | 0.00 | 0.00 | 0.00 | 86 | 1018.8 |
| 20260831104025 | 57 | 288 | 2.0 | 7.0 | 0.00 | 0.00 | 0.00 | 85 | 1018.8 |
| 20260831103525 | 57 | 299 | 3.0 | 7.0 | 0.00 | 0.00 | 0.00 | 85 | 1018.8 |
| 20260831103024 | 57 | 319 | 2.0 | 8.0 | 0.00 | 0.00 | 0.00 | 85 | 1018.7 |
| 20260831102525 | 57 | 330 | 4.0 | 9.0 | 0.00 | 0.00 | 0.00 | 85 | 1018.8 |
| 20260831102023 | 57 | 310 | 4.0 | 9.0 | 0.00 | 0.00 | 0.00 | 85 | 1018.7 |
| 20260831101522 | 58 | 343 | 3.0 | 9.0 | 0.00 | 0.00 | 0.00 | 85 | 1018.6 |
| 20260831101022 | 58 | 349 | 3.0 | 9.0 | 0.00 | 0.00 | 0.00 | 84 | 1018.7 |
| 20260831100520 | 58 | 304 | 3.0 | 10.0 | 0.00 | 0.00 | 0.00 | 84 | 1018.5 |
| 20260831100019 | 58 | 318 | 4.0 | 14.0 | 0.00 | 0.00 | 0.00 | 84 | 1018.5 |
| 20260831095523 | 58 | 313 | 4.0 | 14.0 | 0.00 | 0.00 | 0.00 | 84 | 1018.5 |
| 20260831095020 | 58 | 322 | 5.0 | 12.0 | 0.00 | 0.00 | 0.00 | 84 | 1018.4 |
| 20260831094518 | 58 | 317 | 6.0 | 13.0 | 0.00 | 0.00 | 0.00 | 84 | 1018.5 |
| 20260831094017 | 58 | 327 | 6.0 | 14.0 | 0.00 | 0.00 | 0.00 | 84 | 1018.4 |
| 20260831093517 | 58 | 313 | 5.0 | 15.0 | 0.00 | 0.00 | 0.00 | 84 | 1018.3 |
| 20260831093019 | 58 | 320 | 5.0 | 15.0 | 0.00 | 0.00 | 0.00 | 85 | 1018.3 |
| 20260831092515 | 57 | 327 | 7.0 | 14.0 | 0.00 | 0.00 | 0.00 | 85 | 1018.3 |
| 20260831092015 | 57 | 301 | 5.0 | 12.0 | 0.00 | 0.00 | 0.00 | 85 | 1018.2 |
| 20260831091511 | 57 | 316 | 4.0 | 12.0 | 0.00 | 0.00 | 0.00 | 85 | 1018.1 |
| 20260831091011 | 57 | 289 | 4.0 | 12.0 | 0.00 | 0.00 | 0.00 | 85 | 1018.1 |
| 20260831090510 | 57 | 314 | 4.0 | 9.0 | 0.00 | 0.00 | 0.00 | 85 | 1018.0 |
| 20260831090010 | 57 | 344 | 3.0 | 9.0 | 0.00 | 0.00 | 0.00 | 85 | 1017.9 |
| 20260831085508 | 57 | 290 | 4.0 | 11.0 | 0.00 | 0.00 | 0.00 | 85 | 1017.8 |
| 20260831085008 | 58 | 325 | 4.0 | 11.0 | 0.00 | 0.00 | 0.00 | 85 | 1017.8 |
| 20260831084507 | 58 | 338 | 4.0 | 9.0 | 0.00 | 0.00 | 0.00 | 85 | 1017.7 |
| 20260831084006 | 58 | 308 | 4.0 | 10.0 | 0.00 | 0.00 | 0.00 | 85 | 1017.7 |
| 20260831083504 | 58 | 302 | 4.0 | 10.0 | 0.00 | 0.00 | 0.00 | 85 | 1017.7 |
| 20260831083004 | 58 | 297 | 4.0 | 11.0 | 0.00 | 0.00 | 0.00 | 85 | 1017.6 |
| 20260831082503 | 58 | 333 | 4.0 | 11.0 | 0.00 | 0.00 | 0.00 | 85 | 1017.6 |
| 20260831082003 | 58 | 315 | 3.0 | 8.0 | 0.00 | 0.00 | 0.00 | 85 | 1017.6 |
| 20260831081504 | 58 | 333 | 3.0 | 9.0 | 0.00 | 0.00 | 0.00 | 85 | 1017.5 |
| 20260831081005 | 58 | 351 | 4.0 | 9.0 | 0.00 | 0.00 | 0.00 | 85 | 1017.5 |
| 20260831080502 | 58 | 305 | 4.0 | 10.0 | 0.00 | 0.00 | 0.00 | 85 | 1017.5 |
| 20260831080125 | 58 | 303 | 4.0 | 10.0 | 0.00 | 0.00 | 0.00 | 85 | 1017.5 |
| 20260831075559 | 59 | 327 | 4.0 | 10.0 | 0.00 | 0.00 | 0.00 | 85 | 1017.4 |
| 20260831075100 | 59 | 300 | 2.0 | 10.0 | 0.00 | 0.00 | 0.00 | 85 | 1017.3 |
| 20260831074605 | 59 | 340 | 3.0 | 8.0 | 0.00 | 0.00 | 0.00 | 85 | 1017.3 |
| 20260831074058 | 59 | 334 | 3.0 | 8.0 | 0.00 | 0.00 | 0.00 | 85 | 1017.3 |
| 20260831073558 | 59 | 17 | 3.0 | 8.0 | 0.00 | 0.00 | 0.00 | 85 | 1017.4 |
| 20260831073058 | 59 | 314 | 2.0 | 6.0 | 0.00 | 0.00 | 0.00 | 85 | 1017.3 |
| 20260831072555 | 59 | 342 | 2.0 | 9.0 | 0.00 | 0.00 | 0.00 | 85 | 1017.3 |
| 20260831072058 | 59 | 314 | 4.0 | 10.0 | 0.00 | 0.00 | 0.00 | 84 | 1017.2 |
| 20260831071606 | 59 | 298 | 3.0 | 11.0 | 0.00 | 0.00 | 0.00 | 84 | 1017.1 |
| 20260831071053 | 59 | 315 | 6.0 | 12.0 | 0.00 | 0.00 | 0.00 | 84 | 1017.0 |
| 20260831070553 | 60 | 298 | 6.0 | 14.0 | 0.00 | 0.00 | 0.00 | 84 | 1017.0 |
| 20260831070052 | 60 | 5 | 4.0 | 14.0 | 0.00 | 0.00 | 0.00 | 84 | 1017.0 |
| 20260831065552 | 60 | 296 | 5.0 | 15.0 | 0.00 | 0.00 | 0.00 | 84 | 1017.0 |
| 20260831065052 | 60 | 5 | 3.0 | 15.0 | 0.00 | 0.00 | 0.00 | 84 | 1016.9 |
| 20260831064550 | 60 | 313 | 5.0 | 11.0 | 0.00 | 0.00 | 0.00 | 84 | 1017.1 |
| 20260831064050 | 60 | 283 | 6.0 | 13.0 | 0.00 | 0.00 | 0.00 | 84 | 1016.9 |
| 20260831063550 | 60 | 313 | 5.0 | 14.0 | 0.00 | 0.00 | 0.00 | 84 | 1017.1 |
| 20260831063048 | 60 | 300 | 5.0 | 15.0 | 0.00 | 0.00 | 0.00 | 84 | 1017.0 |
| 20260831062551 | 60 | 343 | 4.0 | 15.0 | 0.00 | 0.00 | 0.00 | 85 | 1016.9 |
| 20260831062047 | 60 | 305 | 7.0 | 14.0 | 0.00 | 0.00 | 0.00 | 85 | 1016.9 |
| 20260831061547 | 60 | 336 | 5.0 | 12.0 | 0.00 | 0.00 | 0.00 | 85 | 1016.8 |
| 20260831061046 | 60 | 298 | 6.0 | 13.0 | 0.00 | 0.00 | 0.00 | 85 | 1016.8 |
| 20260831060545 | 60 | 326 | 4.0 | 11.0 | 0.00 | 0.00 | 0.00 | 85 | 1016.7 |
| 20260831060058 | 60 | 324 | 5.0 | 11.0 | 0.00 | 0.00 | 0.00 | 85 | 1016.7 |
| 20260831055544 | 60 | 340 | 4.0 | 10.0 | 0.00 | 0.00 | 0.00 | 85 | 1016.7 |
| 20260831055043 | 60 | 312 | 3.0 | 10.0 | 0.00 | 0.00 | 0.00 | 85 | 1016.8 |
| 20260831054543 | 60 | 319 | 4.0 | 10.0 | 0.00 | 0.00 | 0.00 | 85 | 1016.8 |
| 20260831054042 | 61 | 313 | 4.0 | 10.0 | 0.00 | 0.00 | 0.00 | 85 | 1016.7 |
| 20260831053541 | 61 | 330 | 3.0 | 13.0 | 0.00 | 0.00 | 0.00 | 85 | 1016.6 |
| 20260831053046 | 61 | 327 | 4.0 | 13.0 | 0.00 | 0.00 | 0.00 | 85 | 1016.6 |
| 20260831052540 | 61 | 321 | 4.0 | 13.0 | 0.00 | 0.00 | 0.00 | 85 | 1016.5 |
| 20260831052039 | 61 | 341 | 6.0 | 13.0 | 0.00 | 0.00 | 0.00 | 84 | 1016.6 |
| 20260831051542 | 61 | 319 | 3.0 | 9.0 | 0.00 | 0.00 | 0.00 | 84 | 1016.4 |
| 20260831051038 | 61 | 301 | 4.0 | 9.0 | 0.00 | 0.00 | 0.00 | 84 | 1016.3 |
| 20260831050540 | 61 | 309 | 2.0 | 5.0 | 0.00 | 0.00 | 0.00 | 84 | 1016.4 |
| 20260831050052 | 61 | 317 | 2.0 | 5.0 | 0.00 | 0.00 | 0.00 | 84 | 1016.4 |
| 20260831045537 | 61 | 309 | 1.0 | 3.0 | 0.00 | 0.00 | 0.00 | 83 | 1016.3 |
| 20260831045036 | 61 | 314 | 1.0 | 5.0 | 0.00 | 0.00 | 0.00 | 83 | 1016.2 |
| 20260831044535 | 61 | 314 | 1.0 | 5.0 | 0.00 | 0.00 | 0.00 | 83 | 1016.3 |
| 20260831044034 | 62 | 326 | 1.0 | 4.0 | 0.00 | 0.00 | 0.00 | 82 | 1016.2 |
| 20260831043533 | 62 | 330 | 0.0 | 3.0 | 0.00 | 0.00 | 0.00 | 82 | 1016.2 |
| 20260831043041 | 62 | 330 | 0.0 | 3.0 | 0.00 | 0.00 | 0.00 | 82 | 1016.1 |
| 20260831042533 | 62 | 312 | 1.0 | 5.0 | 0.00 | 0.00 | 0.00 | 82 | 1016.1 |
| 20260831042036 | 62 | 304 | 1.0 | 5.0 | 0.00 | 0.00 | 0.00 | 82 | 1016.2 |
| 20260831041541 | 62 | 339 | 2.0 | 6.0 | 0.00 | 0.00 | 0.00 | 82 | 1016.2 |
| 20260831041033 | 62 | 309 | 1.0 | 10.0 | 0.00 | 0.00 | 0.00 | 82 | 1016.1 |
| 20260831040530 | 62 | 335 | 4.0 | 10.0 | 0.00 | 0.00 | 0.00 | 82 | 1016.2 |
| 20260831040029 | 62 | 321 | 4.0 | 8.0 | 0.00 | 0.00 | 0.00 | 83 | 1016.2 |
| 20260831035528 | 62 | 329 | 2.0 | 9.0 | 0.00 | 0.00 | 0.00 | 83 | 1016.1 |
| 20260831035028 | 63 | 299 | 4.0 | 9.0 | 0.00 | 0.00 | 0.00 | 83 | 1016.0 |
| 20260831034528 | 63 | 288 | 3.0 | 8.0 | 0.00 | 0.00 | 0.00 | 83 | 1016.0 |
| 20260831034028 | 63 | 296 | 3.0 | 6.0 | 0.00 | 0.00 | 0.00 | 83 | 1016.1 |
| 20260831033532 | 63 | 360 | 2.0 | 6.0 | 0.00 | 0.00 | 0.00 | 82 | 1016.0 |
| 20260831033028 | 63 | 355 | 3.0 | 6.0 | 0.00 | 0.00 | 0.00 | 82 | 1016.0 |
| 20260831032530 | 63 | 29 | 3.0 | 6.0 | 0.00 | 0.00 | 0.00 | 82 | 1015.9 |
| 20260831032028 | 63 | 323 | 2.0 | 5.0 | 0.00 | 0.00 | 0.00 | 81 | 1016.0 |
| 20260831031533 | 63 | 331 | 1.0 | 8.0 | 0.00 | 0.00 | 0.00 | 81 | 1015.8 |
| 20260831031027 | 63 | 323 | 3.0 | 9.0 | 0.00 | 0.00 | 0.00 | 81 | 1015.7 |
| 20260831030526 | 63 | 333 | 1.0 | 9.0 | 0.00 | 0.00 | 0.00 | 80 | 1015.8 |
| 20260831030027 | 63 | 289 | 3.0 | 10.0 | 0.00 | 0.00 | 0.00 | 80 | 1016.1 |
| 20260831025526 | 64 | 306 | 4.0 | 10.0 | 0.00 | 0.00 | 0.00 | 80 | 1016.0 |
| 20260831025027 | 64 | 303 | 4.0 | 9.0 | 0.00 | 0.00 | 0.00 | 79 | 1016.1 |
| 20260831024527 | 64 | 323 | 3.0 | 14.0 | 0.00 | 0.00 | 0.00 | 79 | 1016.1 |
| 20260831024028 | 64 | 319 | 5.0 | 14.0 | 0.00 | 0.00 | 0.00 | 79 | 1016.0 |
| 20260831023527 | 65 | 355 | 4.0 | 14.0 | 0.00 | 0.00 | 0.00 | 79 | 1016.0 |
| 20260831023024 | 65 | 5 | 6.0 | 14.0 | 0.00 | 0.00 | 0.00 | 78 | 1016.1 |
| 20260831022524 | 66 | 319 | 6.0 | 14.0 | 0.00 | 0.00 | 0.00 | 77 | 1016.1 |
| 20260831022024 | 66 | 330 | 7.0 | 18.0 | 0.00 | 0.00 | 0.00 | 77 | 1016.1 |
| 20260831021529 | 67 | 21 | 8.0 | 20.0 | 0.00 | 0.00 | 0.00 | 74 | 1016.1 |
| 20260831021025 | 67 | 355 | 8.0 | 20.0 | 0.00 | 0.00 | 0.00 | 70 | 1016.1 |
| 20260831020527 | 67 | 42 | 9.0 | 25.0 | 0.00 | 0.00 | 0.00 | 69 | 1016.1 |
| 20260831020023 | 68 | 355 | 9.0 | 25.0 | 0.00 | 0.00 | 0.00 | 70 | 1016.0 |
| 20260831015533 | 68 | 315 | 7.0 | 23.0 | 0.00 | 0.00 | 0.00 | 72 | 1015.7 |
| 20260831015027 | 68 | 11 | 11.0 | 21.0 | 0.00 | 0.00 | 0.00 | 75 | 1015.8 |
| 20260831014523 | 68 | 304 | 4.0 | 10.0 | 0.00 | 0.00 | 0.00 | 80 | 1015.4 |
| 20260831014023 | 68 | 329 | 0.0 | 1.0 | 0.00 | 0.00 | 0.00 | 79 | 1014.9 |
| 20260831013524 | 68 | 329 | 0.0 | 3.0 | 0.00 | 0.00 | 0.00 | 79 | 1014.7 |
| 20260831013037 | 68 | 329 | 0.0 | 3.0 | 0.00 | 0.00 | 0.00 | 79 | 1014.7 |
| 20260831012522 | 68 | 329 | 1.0 | 3.0 | 0.00 | 0.00 | 0.00 | 80 | 1014.7 |
| 20260831012022 | 68 | 350 | 1.0 | 4.0 | 0.00 | 0.00 | 0.00 | 79 | 1014.7 |
| 20260831011522 | 68 | 350 | 1.0 | 4.0 | 0.00 | 0.00 | 0.00 | 78 | 1014.6 |
| 20260831011025 | 68 | 355 | 2.0 | 4.0 | 0.00 | 0.00 | 0.00 | 76 | 1014.6 |
| 20260831010522 | 68 | 264 | 0.0 | 3.0 | 0.00 | 0.00 | 0.00 | 74 | 1014.6 |
| 20260831010022 | 68 | 261 | 0.0 | 4.0 | 0.00 | 0.00 | 0.00 | 76 | 1014.5 |
| 20260831005522 | 68 | 265 | 1.0 | 3.0 | 0.00 | 0.00 | 0.00 | 76 | 1014.4 |
| 20260831005021 | 68 | 265 | 0.0 | 3.0 | 0.00 | 0.00 | 0.00 | 76 | 1014.4 |
| 20260831004521 | 68 | 265 | 1.0 | 3.0 | 0.00 | 0.00 | 0.00 | 76 | 1014.4 |
| 20260831004020 | 69 | 265 | 1.0 | 3.0 | 0.00 | 0.00 | 0.00 | 76 | 1014.4 |
| 20260831003522 | 69 | 266 | 1.0 | 3.0 | 0.00 | 0.00 | 0.00 | 77 | 1014.4 |
| 20260831003024 | 69 | 266 | 1.0 | 2.0 | 0.00 | 0.00 | 0.00 | 76 | 1014.4 |
| 20260831002522 | 69 | 267 | 0.0 | 2.0 | 0.00 | 0.00 | 0.00 | 75 | 1014.5 |
| 20260831002019 | 69 | 267 | 0.0 | 2.0 | 0.00 | 0.00 | 0.00 | 75 | 1014.4 |
| 20260831001525 | 69 | 267 | 1.0 | 2.0 | 0.00 | 0.00 | 0.00 | 74 | 1014.2 |
| 20260831001021 | 70 | 267 | 0.0 | 1.0 | 0.00 | 0.00 | 0.00 | 73 | 1014.2 |
| 20260831000519 | 70 | 267 | 0.0 | 2.0 | 0.00 | 0.00 | 0.00 | 73 | 1014.1 |
| 20260831000020 | 70 | 267 | 0.0 | 2.0 | 0.00 | 0.00 | 0.00 | 73 | 1014.1 |
| 20260830235519 | 70 | 267 | 0.0 | 4.0 | 0.00 | 0.00 | 0.00 | 72 | 1014.1 |
| 20260830235025 | 70 | 267 | 1.0 | 4.0 | 0.00 | 0.00 | 0.00 | 71 | 1014.2 |
| 20260830234518 | 70 | 269 | 0.0 | 4.0 | 0.00 | 0.00 | 0.00 | 71 | 1014.0 |
| 20260830234018 | 70 | 269 | 1.0 | 6.0 | 0.00 | 0.00 | 0.00 | 70 | 1014.1 |
| 20260830233522 | 70 | 270 | 1.0 | 6.0 | 0.00 | 0.00 | 0.00 | 67 | 1014.1 |
| 20260830233017 | 70 | 270 | 1.0 | 6.0 | 0.00 | 0.00 | 0.00 | 69 | 1014.2 |
| 20260830232517 | 70 | 219 | 1.0 | 4.0 | 0.00 | 0.00 | 0.00 | 69 | 1014.1 |
| 20260830232017 | 70 | 247 | 1.0 | 4.0 | 0.00 | 0.00 | 0.00 | 70 | 1014.0 |
| 20260830231517 | 70 | 265 | 0.0 | 4.0 | 0.00 | 0.00 | 0.00 | 70 | 1014.1 |
| 20260830231017 | 70 | 279 | 1.0 | 4.0 | 0.00 | 0.00 | 0.00 | 69 | 1014.1 |
| 20260830230516 | 70 | 279 | 1.0 | 4.0 | 0.00 | 0.00 | 0.00 | 68 | 1013.9 |
| 20260830230018 | 71 | 273 | 1.0 | 3.0 | 0.00 | 0.00 | 0.00 | 70 | 1014.0 |
| 20260830225516 | 71 | 231 | 1.0 | 3.0 | 0.00 | 0.00 | 0.00 | 70 | 1013.9 |
| 20260830225016 | 71 | 271 | 0.0 | 7.0 | 0.00 | 0.00 | 0.00 | 70 | 1013.9 |
| 20260830224518 | 71 | 271 | 1.0 | 7.0 | 0.00 | 0.00 | 0.00 | 68 | 1014.0 |
| 20260830224017 | 71 | 272 | 1.0 | 4.0 | 0.00 | 0.00 | 0.00 | 70 | 1014.1 |
| 20260830223515 | 71 | 189 | 1.0 | 4.0 | 0.00 | 0.00 | 0.00 | 68 | 1014.0 |
| 20260830223016 | 71 | 154 | 1.0 | 3.0 | 0.00 | 0.00 | 0.00 | 70 | 1014.1 |
| 20260830222515 | 72 | 161 | 0.0 | 3.0 | 0.00 | 0.00 | 0.00 | 70 | 1014.0 |
| 20260830222014 | 72 | 150 | 0.0 | 3.0 | 0.00 | 0.00 | 0.00 | 69 | 1014.0 |
| 20260830221518 | 72 | 183 | 0.0 | 3.0 | 0.00 | 0.00 | 0.00 | 69 | 1013.9 |
| 20260830221015 | 72 | 15 | 1.0 | 4.0 | 0.00 | 0.00 | 0.00 | 67 | 1014.0 |
| 20260830220514 | 72 | 283 | 1.0 | 6.0 | 0.00 | 0.00 | 0.00 | 67 | 1014.2 |
| 20260830220014 | 72 | 161 | 2.0 | 8.0 | 0.00 | 0.00 | 0.00 | 67 | 1014.1 |
| 20260830215513 | 72 | 270 | 3.0 | 8.0 | 0.00 | 0.00 | 0.00 | 67 | 1014.0 |
| 20260830215013 | 72 | 269 | 1.0 | 6.0 | 0.00 | 0.00 | 0.00 | 68 | 1014.0 |
| 20260830214518 | 72 | 207 | 1.0 | 8.0 | 0.00 | 0.00 | 0.00 | 67 | 1014.2 |
| 20260830214012 | 72 | 196 | 3.0 | 7.0 | 0.00 | 0.00 | 0.00 | 68 | 1014.2 |
| 20260830213516 | 72 | 280 | 1.0 | 4.0 | 0.00 | 0.00 | 0.00 | 68 | 1014.1 |
| 20260830213014 | 72 | 283 | 0.0 | 9.0 | 0.00 | 0.00 | 0.00 | 68 | 1014.1 |
| 20260830212514 | 72 | 275 | 2.0 | 9.0 | 0.00 | 0.00 | 0.00 | 68 | 1014.1 |
| 20260830212011 | 72 | 269 | 1.0 | 7.0 | 0.00 | 0.00 | 0.00 | 69 | 1014.2 |
| 20260830211512 | 72 | 269 | 2.0 | 7.0 | 0.00 | 0.00 | 0.00 | 69 | 1014.2 |
| 20260830211011 | 72 | 253 | 1.0 | 4.0 | 0.00 | 0.00 | 0.00 | 70 | 1014.2 |
| 20260830210511 | 72 | 266 | 1.0 | 4.0 | 0.00 | 0.00 | 0.00 | 72 | 1014.2 |
| 20260830210011 | 72 | 269 | 1.0 | 3.0 | 0.00 | 0.00 | 0.00 | 73 | 1014.2 |
| 20260830205513 | 72 | 269 | 0.0 | 3.0 | 0.00 | 0.00 | 0.00 | 72 | 1014.2 |
| 20260830205010 | 72 | 269 | 1.0 | 4.0 | 0.00 | 0.00 | 0.00 | 72 | 1014.2 |
| 20260830204510 | 72 | 268 | 1.0 | 4.0 | 0.00 | 0.00 | 0.00 | 72 | 1014.2 |
| 20260830204009 | 71 | 257 | 1.0 | 3.0 | 0.00 | 0.00 | 0.00 | 73 | 1014.2 |
| 20260830203509 | 71 | 257 | 1.0 | 4.0 | 0.00 | 0.00 | 0.00 | 73 | 1014.3 |
| 20260830203019 | 71 | 276 | 1.0 | 4.0 | 0.00 | 0.00 | 0.00 | 73 | 1014.4 |
| 20260830202508 | 71 | 299 | 1.0 | 7.0 | 0.00 | 0.00 | 0.00 | 74 | 1014.3 |
| 20260830202008 | 71 | 266 | 3.0 | 7.0 | 0.00 | 0.00 | 0.00 | 74 | 1014.4 |
| 20260830201508 | 71 | 279 | 1.0 | 4.0 | 0.00 | 0.00 | 0.00 | 74 | 1014.3 |
| 20260830201012 | 71 | 277 | 0.0 | 5.0 | 0.00 | 0.00 | 0.00 | 75 | 1014.5 |
| 20260830200507 | 71 | 277 | 1.0 | 5.0 | 0.00 | 0.00 | 0.00 | 75 | 1014.5 |
| 20260830200007 | 71 | 270 | 1.0 | 5.0 | 0.00 | 0.00 | 0.00 | 74 | 1014.5 |
| 20260830195506 | 71 | 215 | 1.0 | 5.0 | 0.00 | 0.00 | 0.00 | 74 | 1014.6 |
| 20260830195006 | 71 | 237 | 1.0 | 5.0 | 0.00 | 0.00 | 0.00 | 74 | 1014.6 |
| 20260830194506 | 71 | 271 | 1.0 | 4.0 | 0.00 | 0.00 | 0.00 | 75 | 1014.6 |